Regional Weather Roundup
Issued by NWS

Home | Current Version | Previous Version | Graphics & Text | Print | Product List | Glossary Off
Versions: 1 2 3 4 5 6 7 8 9 10 11 12 13 14 15 16 17 18 19 20 21 22 23 24 25 26 27 28 29 30 31 32 33 34 35 36 37 38 39 40 41 42 43 44 45 46 47 48 49 50

000
ASUS43 KMPX 300601
RWRMN
WEATHER ROUNDUP FOR MINNESOTA
NATIONAL WEATHER SERVICE TWIN CITIES/CHANHASSEN MN
100 AM CDT TUE SEP 30 2014


NOTE: "FAIR" INDICATES FEW OR NO CLOUDS BELOW 12,000 FEET WITH NO
SIGNIFICANT WEATHER AND/OR OBSTRUCTIONS TO VISIBILITY. N/A MEANS
CURRENT SKY AND/OR WEATHER CONDITIONS ARE NOT AVAILABLE.

MNZ060>063-068>070-300700-
   Twin Cities Metro

CITY           SKY/WX    TMP DP  RH WIND       PRES   REMARKS
TWIN CITIES    PTCLDY    44  40  85 NE10      30.11R
6HR MIN TEMP:  44; 6HR MAX TEMP:  55;

ST PAUL        CLEAR     44  40  85 E5        30.13R
CRYSTAL        PTCLDY    43  39  86 NE3       30.11R
BLAINE         CLEAR     43  43 100 NE6       30.12R
LAKEVILLE      CLEAR     41  39  93 CALM      30.10R
EDEN PRAIRIE   CLEAR     45  41  86 NE10      30.10R
6HR MIN TEMP:  45; 6HR MAX TEMP:  54;

SOUTH ST PAUL  CLEAR     44  39  82 E6        30.12R
LAKE ELMO      MOCLDY    43  39  87 E10       30.12S
$$
MNZ001>005-007-008-013>017-022>024-027-028-300700-
   Northwest Minnesota

CITY           SKY/WX    TMP DP  RH WIND       PRES   REMARKS
BEMIDJI        CLOUDY    47  42  85 SE10      30.10F
HALLOCK        CLEAR     45  43  93 E7        30.06F
ROSEAU         CLEAR     43  37  81 E8        30.11S
WARROAD        CLEAR     41  37  87 SE7       30.13S
THIEF RVR FALL CLEAR     45  41  87 E8        30.08S
CROOKSTON      CLEAR     45  43  93 SE6       30.08S
FOSSTON        CLEAR     43  39  87 SE6       30.09S
DETROIT LAKES  PTCLDY    46  43  87 SE13      30.09R
PARK RAPIDS    PTCLDY    44  41  89 SE7       30.10S
MAHNOMEN       FAIR      45  42  89 S3        30.08S
$$
MNZ006-009>011-018-025>026-300700-
   North Central Minnesota

CITY           SKY/WX    TMP DP  RH WIND       PRES   REMARKS
BAUDETTE       CLOUDY    42  40  92 SE8       30.14R
FLAG ISLAND    CLOUDY    46  43  87 S10       30.12R
INTL FALLS     CLOUDY    42  39  89 SE7       30.15F
6HR MIN TEMP:  42; 6HR MAX TEMP:  46;

WASKISH        CLOUDY    41  39  93 CALM      30.13S
BIG FORK       CLOUDY    46  41  81 SE3       30.14S
LONGVILLE      CLOUDY    43  39  87 E5        30.12F
GRAND RAPIDS   CLOUDY    43  37  81 SE9       30.15R
CRANE LAKE     CLOUDY    41  39  93 CALM      30.18F
ORR            CLOUDY    43  37  81 SE6       30.13F
COOK           CLOUDY    43  39  87 SE6       30.16F
WALKER         MOCLDY    46  41  83 E6        30.11S
$$
MNZ012-019>021-037-300700-
   Northeast Minnesota

CITY           SKY/WX    TMP DP  RH WIND       PRES   REMARKS
DULUTH         CLOUDY    44  39  82 E13       30.15F
6HR MIN TEMP:  44; 6HR MAX TEMP:  44;

ELY            CLOUDY    41  37  87 E3        30.16F
HIBBING        CLOUDY    44  38  79 SE10      30.16S
EVELETH        CLOUDY    43  39  87 SE3       30.16F
DULUTH HARBOR  CLOUDY    48  43  81 E16G24    30.18S
TWO HARBORS    CLOUDY    43  37  81 E7        30.16R
SILVER BAY     PTCLDY    43  43 100 E5        30.17S
GRAND MARAIS     N/A     42  36  79 NE6       30.21F
G MARAIS ARPRT CLOUDY    36  32  87 E6        30.18F
$$
MNZ029>031-032-039>041-046>048-054>057-064-300700-
   West Central Minnesota

CITY           SKY/WX    TMP DP  RH WIND       PRES   REMARKS
FERGUS FALLS   MOCLDY    48  41  76 SE9       30.07F
WHEATON        CLEAR     45  43  93 E12       30.07S
MORRIS         CLEAR     45  43  93 E12       30.06S
ALEXANDRIA     CLOUDY    43  40  89 E10       30.09F
ELBOW LAKE     FAIR      45  42  91 SE10      30.06S
WADENA         CLOUDY    43  41  93 E8        30.09S
GLENWOOD       CLEAR     39  39 100 E9        30.08F
APPLETON       PTCLDY    48  43  81 E9        30.06S
BENSON         CLEAR     43  43 100 SE3       30.07S
ORTONVILLE     PTCLDY    48  43  81 SE10G18   30.04S
MADISON        PTCLDY    52  46  82 E9        30.05F
WILLMAR        FAIR      46  43  87 E10       30.08F
$$
MNZ033>034-036-042>043-049>051-058-059-300700-
   Central Minnesota

CITY           SKY/WX    TMP DP  RH WIND       PRES   REMARKS
ST CLOUD       CLOUDY    45  40  82 E8        30.11S
6HR MIN TEMP:  44; 6HR MAX TEMP:  53;

SAUK CENTRE    CLOUDY    41  39  93 E9        30.10S
PAYNESVILLE    CLOUDY    41  40  95 NE9       30.10F
AITKIN         CLOUDY    45  37  76 E8        30.13S
PINE RIVER     CLOUDY    43  39  87 E9        30.15F
BRAINERD       CLOUDY    42  39  89 E7        30.13S
STAPLES        CLOUDY    43  39  87 E6        30.11S
LONG PRAIRIE   CLOUDY    39  37  93 E8        30.11R
LITTLE FALLS   CLOUDY    41  37  87 E5        30.12S
LITCHFIELD     CLEAR     45  43  93 E6        30.10S
BUFFALO        CLEAR     42  38  87 NE7       30.12R
MAPLE LAKE     CLEAR     43  41  93 E10       30.12R
$$
MNZ037-044-045-052-053-300700-
   East Central Minnesota

CITY           SKY/WX    TMP DP  RH WIND       PRES   REMARKS
PRINCETON      CLOUDY    45  41  87 NE9       30.13R
MORA           CLOUDY    39  36  87 E7        30.16S
CAMBRIDGE      CLOUDY    45  36  70 NE8       30.11S
RUSH CITY      CLOUDY    43  39  86 NE6       30.14S
MOOSE LAKE     CLOUDY    41  36  81 NE8       30.13F
HINCKLEY       CLOUDY    43  39  87 NE6       30.15S
CLOQUET        CLOUDY    43  39  87 E7        30.15F
MCGREGOR       CLOUDY    43  39  87 E10       30.16R
$$
MNZ071>073-080-081-089-090-097-098-300700-
   Southwest Minnesota

CITY           SKY/WX    TMP DP  RH WIND       PRES   REMARKS
MONTEVIDEO     CLEAR     46  46 100 SE9       30.07S
GRANITE FALLS  CLEAR     47  44  87 E7        30.08S
CANBY          CLEAR     47  46  95 E5        30.05F
MARSHALL       CLEAR     48  43  81 SE9       30.04S
REDWOOD FALLS  CLEAR     47  45  93 E9        30.07S
OLIVIA         CLEAR     46  43  87 E8        30.06S
PIPESTONE      CLEAR     52  46  82 SE12G18   30.01F
WINDOM         CLEAR     48  46  93 E8        30.05F
WORTHINGTON    MOCLDY    50  46  87 E8        30.05S
JACKSON        CLEAR     50  46  87 E6        30.05F
TRACY          CLEAR     49  47  93 SE7       30.05S
SLAYTON        CLOUDY    49  48  94 CALM      30.05S
$$
MNZ065>067-074>077-082>085-091>093-300700-
   South Central Minnesota

CITY           SKY/WX    TMP DP  RH WIND       PRES   REMARKS
MANKATO        CLEAR     46  39  76 E9        30.07S
NEW ULM        CLEAR     46  46 100 E8        30.07S
ST JAMES       CLEAR     48  46  93 CALM      30.07S
FAIRMONT       CLEAR     48  43  81 CALM      30.06R
GLENCOE        CLEAR     43  40  88 CALM      30.09S
FARIBAULT      CLEAR     46  41  81 NE5       30.08F
OWATONNA       CLEAR     45  43  93 NE8       30.07F
WASECA         CLEAR     45  37  76 E10       30.08S
ALBERT LEA     CLEAR     48  46  93 E6        30.06S
$$
MNZ078>079-086>088-094>096-300700-
   Southeast Minnesota

CITY           SKY/WX    TMP DP  RH WIND       PRES   REMARKS
ROCHESTER      CLEAR     44  41  89 NE7       30.08S
6HR MIN TEMP:  44; 6HR MAX TEMP:  55;

RED WING       CLEAR     43  39  87 E5        30.10S
STANTON        CLEAR     43  40  89 NE5       30.09S
DODGE CENTER   PTCLDY    45  43  93 E6        30.07F
WINONA         CLEAR     46  41  81 E3        30.11R
AUSTIN         CLEAR     46  45  93 E5        30.06S
PRESTON        CLEAR     45  42  92 NE3       30.08R
$$
ABBREVIATIONS USED IN REMARKS
   TC - TEMPERATURES IN CELSIUS
  WCI - WIND CHILL INDEX
   HX - HEAT INDEX
  VSB - VISIBILITY
$$



USA.gov is the U.S. government's official web portal to all federal, state and local government web resources and services.